N4TLC Weather Reports


time (UTC)temp
C
wind
direction
speed
KPH
gust
KPH
rain 1hr
cm
rain 24hr
cm
rain mn
cm
humidity
%
barometer
mb
20260503060127 5 99 0.0 1.6 0.00 0.00 0.00 81 1018.0
20260503055119 5 83 1.6 3.2 0.00 0.00 0.00 84 1017.8
20260503054615 5 110 0.0 1.6 0.00 0.00 0.00 83 1017.8
20260503054112 5 104 1.6 3.2 0.00 0.00 0.00 84 1017.8
20260503053610 5 124 0.0 3.2 0.00 0.00 0.00 86 1017.8
20260503053108 5 65 1.6 3.2 0.00 0.00 0.00 88 1017.8
20260503052604 5 67 1.6 3.2 0.00 0.00 0.00 89 1017.7
20260503052101 5 47 1.6 3.2 0.00 0.00 0.00 90 1017.9
20260503051556 5 89 0.0 1.6 0.00 0.00 0.00 90 1017.9
20260503051054 4 141 0.0 1.6 0.00 0.00 0.00 90 1017.7
20260503050550 5 129 1.6 3.2 0.00 0.00 0.00 89 1017.7
20260503050047 5 116 1.6 1.6 0.00 0.00 0.00 88 1017.6
20260503045544 5 77 1.6 1.6 0.00 0.00 0.00 88 1017.6
20260503045041 5 96 1.6 3.2 0.00 0.00 0.00 87 1017.7
20260503044538 5 104 1.6 3.2 0.00 0.00 0.00 87 1017.6
20260503044036 5 103 0.0 1.6 0.00 0.00 0.00 86 1017.6
20260503043532 5 103 1.6 3.2 0.00 0.00 0.00 85 1017.6
20260503043028 5 97 1.6 3.2 0.00 0.00 0.00 84 1017.5
20260503042526 5 118 1.6 3.2 0.00 0.00 0.00 84 1017.6
20260503042021 5 124 3.2 3.2 0.00 0.00 0.00 83 1017.4
20260503041519 5 126 0.0 3.2 0.00 0.00 0.00 83 1017.5
20260503041016 5 89 0.0 1.6 0.00 0.00 0.00 83 1017.4
20260503040514 5 103 1.6 3.2 0.00 0.00 0.00 81 1017.3
20260503040011 6 114 3.2 3.2 0.00 0.00 0.00 81 1017.4
20260503035507 6 113 1.6 3.2 0.00 0.00 0.00 80 1017.4
20260503035005 6 114 1.6 3.2 0.00 0.00 0.00 80 1017.3
20260503034502 6 103 3.2 3.2 0.00 0.00 0.00 79 1017.4
20260503033959 6 92 3.2 3.2 0.00 0.00 0.00 80 1017.2
20260503033456 6 109 1.6 3.2 0.00 0.00 0.00 79 1017.1
20260503032954 6 95 0.0 3.2 0.00 0.00 0.00 77 1017.2
20260503032452 6 94 1.6 3.2 0.00 0.00 0.00 77 1017.1
20260503031950 6 79 1.6 3.2 0.00 0.00 0.00 76 1016.9
20260503031447 7 118 3.2 3.2 0.00 0.00 0.00 75 1016.8
20260503030944 7 104 3.2 3.2 0.00 0.00 0.00 74 1017.0
20260503030440 7 98 1.6 3.2 0.00 0.00 0.00 73 1016.9
20260503025937 7 102 3.2 3.2 0.00 0.00 0.00 73 1016.9
20260503025434 7 107 3.2 3.2 0.00 0.00 0.00 72 1017.1
20260503024932 7 102 3.2 3.2 0.00 0.00 0.00 71 1017.1
20260503024428 8 83 1.6 3.2 0.00 0.00 0.00 70 1016.8
20260503023925 8 92 1.6 3.2 0.00 0.00 0.00 68 1016.8
20260503023422 8 125 1.6 3.2 0.00 0.00 0.00 67 1016.8
20260503022919 9 102 1.6 3.2 0.00 0.00 0.00 63 1017.0
20260503022414 9 106 3.2 3.2 0.00 0.00 0.00 64 1016.9
20260503021910 9 127 1.6 3.2 0.00 0.00 0.00 64 1016.8
20260503021406 10 151 0.0 3.2 0.00 0.00 0.00 65 1016.8
20260503020904 10 76 0.0 1.6 0.00 0.00 0.00 64 1016.9
20260503020402 10 89 0.0 1.6 0.00 0.00 0.00 62 1016.6
20260503015857 10 69 0.0 3.2 0.00 0.00 0.00 60 1016.5
20260503015355 11 105 1.6 3.2 0.00 0.00 0.00 56 1016.4
20260503014850 11 89 0.0 3.2 0.00 0.00 0.00 54 1016.3
20260503014348 11 21 1.6 3.2 0.00 0.00 0.00 53 1016.3
20260503013846 11 8 0.0 3.2 0.00 0.00 0.00 53 1016.3
20260503013342 11 43 3.2 4.8 0.00 0.00 0.00 52 1016.0
20260503012839 11 7 3.2 4.8 0.00 0.00 0.00 51 1016.0
20260503012337 11 59 6.4 9.7 0.00 0.00 0.00 53 1016.1
20260503011834 10 132 0.0 3.2 0.00 0.00 0.00 61 1015.7
20260503011331 10 111 0.0 3.2 0.00 0.00 0.00 59 1015.7
20260503010827 10 57 0.0 3.2 0.00 0.00 0.00 61 1015.6
20260503010325 10 81 0.0 3.2 0.00 0.00 0.00 60 1015.8
20260503005821 11 37 0.0 3.2 0.00 0.00 0.00 60 1015.6
20260503005319 11 38 3.2 3.2 0.00 0.00 0.00 60 1015.4
20260503004815 11 97 0.0 3.2 0.00 0.00 0.00 58 1015.2
20260503004313 11 135 0.0 3.2 0.00 0.00 0.00 57 1015.2
20260503003810 11 96 1.6 3.2 0.00 0.00 0.00 55 1015.2
20260503003307 12 102 1.6 3.2 0.00 0.00 0.00 54 1015.0
20260503002804 12 118 3.2 3.2 0.00 0.00 0.00 53 1015.2
20260503002300 12 130 3.2 3.2 0.00 0.00 0.00 53 1015.0
20260503001756 12 113 3.2 3.2 0.00 0.00 0.00 51 1015.1
20260503001253 12 123 3.2 3.2 0.00 0.00 0.00 51 1015.1
20260503000751 12 116 1.6 3.2 0.00 0.00 0.00 50 1015.0
20260503000248 13 134 3.2 3.2 0.00 0.00 0.00 51 1014.9
20260502235745 13 133 3.2 4.8 0.00 0.00 0.00 49 1015.0
20260502235243 13 101 3.2 6.4 0.00 0.00 0.00 49 1014.7
20260502234738 13 121 3.2 4.8 0.00 0.00 0.00 51 1014.8
20260502234236 13 91 3.2 3.2 0.00 0.00 0.00 50 1014.6
20260502233732 13 125 3.2 3.2 0.00 0.00 0.00 48 1014.3
20260502233229 13 127 4.8 6.4 0.00 0.00 0.00 47 1014.3
20260502232725 13 115 3.2 6.4 0.00 0.00 0.00 46 1014.2
20260502232222 13 128 4.8 4.8 0.00 0.00 0.00 46 1014.2
20260502231719 14 125 3.2 6.4 0.00 0.00 0.00 44 1014.1
20260502231217 14 129 3.2 3.2 0.00 0.00 0.00 46 1013.9
20260502230716 14 104 3.2 4.8 0.00 0.00 0.00 43 1013.8
20260502230213 15 109 3.2 6.4 0.00 0.00 0.00 42 1014.0
20260502225708 15 133 0.0 6.4 0.00 0.00 0.00 42 1013.9
20260502225206 16 126 3.2 6.4 0.00 0.00 0.00 40 1013.8
20260502224702 16 128 3.2 4.8 0.00 0.00 0.00 40 1013.9
20260502224159 16 116 1.6 3.2 0.00 0.00 0.00 41 1013.8
20260502223656 16 114 3.2 4.8 0.00 0.00 0.00 38 1013.9
20260502223155 17 100 1.6 4.8 0.00 0.00 0.00 36 1013.7
20260502222652 17 126 3.2 4.8 0.00 0.00 0.00 35 1013.6
20260502222148 17 126 3.2 4.8 0.00 0.00 0.00 35 1013.7
20260502221644 17 82 3.2 4.8 0.00 0.00 0.00 35 1013.3
20260502221141 17 98 0.0 4.8 0.00 0.00 0.00 36 1013.4
20260502220637 17 50 0.0 4.8 0.00 0.00 0.00 36 1013.4
20260502220134 18 146 3.2 6.4 0.00 0.00 0.00 35 1013.3
20260502215631 18 65 1.6 4.8 0.00 0.00 0.00 36 1013.5
20260502215128 18 191 3.2 3.2 0.00 0.00 0.00 35 1013.3
20260502214625 17 144 3.2 6.4 0.00 0.00 0.00 36 1013.2
20260502214122 17 134 3.2 3.2 0.00 0.00 0.00 35 1013.2
20260502213620 17 133 3.2 4.8 0.00 0.00 0.00 35 1013.5
20260502213116 17 114 3.2 4.8 0.00 0.00 0.00 35 1013.3
20260502212616 17 89 1.6 8.0 0.00 0.00 0.00 35 1013.4
20260502212114 17 125 1.6 4.8 0.00 0.00 0.00 35 1013.4
20260502211608 16 125 4.8 6.4 0.00 0.00 0.00 37 1013.3
20260502211106 16 248 0.0 6.4 0.00 0.00 0.00 36 1013.2
20260502210603 16 130 0.0 6.4 0.00 0.00 0.00 37 1013.5
20260502210100 16 148 6.4 8.0 0.00 0.00 0.00 36 1013.2
20260502205556 16 121 3.2 4.8 0.00 0.00 0.00 36 1013.2
20260502205053 16 58 3.2 4.8 0.00 0.00 0.00 36 1013.5
20260502204550 15 106 3.2 6.4 0.00 0.00 0.00 40 1013.5
20260502204048 15 95 3.2 6.4 0.00 0.00 0.00 40 1013.4
20260502203545 15 117 3.2 3.2 0.00 0.00 0.00 39 1013.4
20260502203042 15 160 0.0 4.8 0.00 0.00 0.00 39 1013.5
20260502202538 15 153 3.2 3.2 0.00 0.00 0.00 40 1013.5
20260502202036 15 110 3.2 9.7 0.00 0.00 0.00 41 1013.5
20260502201532 15 102 4.8 6.4 0.00 0.00 0.00 40 1013.7
20260502201029 15 104 3.2 6.4 0.00 0.00 0.00 38 1013.5
20260502200524 15 65 4.8 4.8 0.00 0.00 0.00 37 1013.5
20260502200022 15 140 6.4 8.0 0.00 0.00 0.00 39 1013.9
20260502195520 15 86 3.2 6.4 0.00 0.00 0.00 40 1014.1
20260502195015 14 102 1.6 4.8 0.00 0.00 0.00 42 1014.3
20260502194513 14 47 3.2 6.4 0.00 0.00 0.00 39 1014.2
20260502194009 14 256 3.2 4.8 0.00 0.00 0.00 39 1014.3
20260502193506 14 75 4.8 4.8 0.00 0.00 0.00 40 1014.4
20260502193002 14 114 3.2 6.4 0.00 0.00 0.00 40 1014.4
20260502192458 13 89 3.2 3.2 0.00 0.00 0.00 38 1014.3
20260502191955 13 84 3.2 6.4 0.00 0.00 0.00 39 1014.3
20260502191453 13 95 4.8 9.7 0.00 0.00 0.00 37 1014.4
20260502190951 13 76 4.8 8.0 0.00 0.00 0.00 40 1014.4
20260502190448 13 75 4.8 6.4 0.00 0.00 0.00 43 1014.8
20260502185944 13 14 3.2 6.4 0.00 0.00 0.00 42 1014.9
20260502185440 13 78 4.8 6.4 0.00 0.00 0.00 44 1014.7
20260502184937 12 69 4.8 11.3 0.00 0.00 0.00 41 1014.8
20260502184432 13 97 4.8 8.0 0.00 0.00 0.00 44 1014.8
20260502183928 13 36 3.2 6.4 0.00 0.00 0.00 43 1015.0
20260502183425 12 106 4.8 6.4 0.00 0.00 0.00 42 1014.9
20260502182920 12 139 3.2 8.0 0.00 0.00 0.00 42 1015.0
20260502182416 12 64 4.8 6.4 0.00 0.00 0.00 43 1015.0
20260502181912 12 99 4.8 8.0 0.00 0.00 0.00 42 1015.0
20260502181411 12 68 6.4 8.0 0.00 0.00 0.00 43 1014.8
20260502180909 12 94 4.8 8.0 0.00 0.00 0.00 43 1014.8
20260502180406 12 64 8.0 9.7 0.00 0.00 0.00 41 1015.1
20260502170324 12 78 6.4 8.0 0.00 0.00 0.00 46 1015.3
20260502164312 12 35 6.4 6.4 0.00 0.00 0.00 47 1015.9
20260502163808 12 33 6.4 9.7 0.00 0.00 0.00 47 1016.1
20260502163304 12 65 4.8 4.8 0.00 0.00 0.00 47 1016.0
20260502162802 12 39 6.4 8.0 0.00 0.00 0.00 45 1016.2
20260502162259 12 31 3.2 8.0 0.00 0.00 0.00 49 1016.2
20260502161755 12 34 3.2 6.4 0.00 0.00 0.00 47 1016.3
20260502161251 11 61 8.0 9.7 0.00 0.00 0.00 49 1016.2
20260502160750 11 87 3.2 6.4 0.00 0.00 0.00 49 1016.2
20260502160249 11 93 3.2 8.0 0.00 0.00 0.00 49 1016.2
20260502152218 11 0 3.2 9.7 0.00 0.00 0.00 51 1016.6
20260502151715 11 52 6.4 9.7 0.00 0.00 0.00 49 1016.4
20260502151212 11 80 4.8 9.7 0.00 0.00 0.00 50 1016.5
20260502150709 11 56 3.2 8.0 0.00 0.00 0.00 50 1016.4
20260502150206 11 71 6.4 11.3 0.00 0.00 0.00 49 1016.3
20260502140130 11 41 3.2 8.0 0.00 0.00 0.00 55 1016.3
20260502130554 11 82 8.0 8.0 0.00 0.00 0.00 61 1016.2
20260502123538 11 64 4.8 6.4 0.00 0.00 0.00 62 1015.3
20260502123034 11 64 4.8 8.0 0.00 0.00 0.00 62 1015.2
20260502122531 11 71 4.8 8.0 0.00 0.00 0.00 61 1015.3
20260502122028 11 70 3.2 6.4 0.00 0.00 0.00 62 1015.5
20260502121525 11 53 4.8 8.0 0.00 0.00 0.00 61 1015.4
20260502121022 11 79 3.2 4.8 0.00 0.00 0.00 62 1015.7
20260502120519 11 80 3.2 6.4 0.00 0.00 0.00 63 1015.3
20260502115514 11 85 3.2 8.0 0.00 0.00 0.00 64 1015.4
20260502115009 11 74 4.8 8.0 0.00 0.00 0.00 64 1015.4
20260502114507 11 102 3.2 8.0 0.00 0.00 0.00 64 1015.2
20260502114003 11 91 6.4 9.7 0.00 0.00 0.00 64 1015.1
20260502113501 11 67 4.8 8.0 0.00 0.00 0.00 64 1015.1
20260502112959 11 72 4.8 9.7 0.00 0.00 0.00 64 1015.0
20260502112456 11 53 6.4 9.7 0.00 0.00 0.00 65 1015.2
20260502111954 11 70 9.7 11.3 0.00 0.00 0.00 65 1015.0
20260502111451 11 70 4.8 6.4 0.00 0.00 0.00 66 1015.0
20260502110948 11 84 4.8 9.7 0.00 0.00 0.00 66 1015.1
20260502110446 11 64 6.4 8.0 0.00 0.00 0.00 66 1015.0
20260502105943 11 57 3.2 6.4 0.00 0.00 0.00 66 1015.2
20260502105440 11 51 4.8 8.0 0.00 0.00 0.00 66 1015.2
20260502104938 11 41 3.2 6.4 0.00 0.00 0.00 66 1014.7
20260502104435 11 94 4.8 6.4 0.00 0.00 0.00 66 1014.9
20260502103932 11 83 3.2 6.4 0.00 0.00 0.00 66 1014.8
20260502103430 11 66 6.4 8.0 0.00 0.00 0.00 67 1014.9
20260502102927 11 73 4.8 9.7 0.00 0.00 0.00 67 1015.1
20260502102424 11 76 3.2 8.0 0.00 0.00 0.00 68 1014.9
20260502101921 11 72 6.4 8.0 0.00 0.00 0.00 68 1015.1
20260502101419 11 65 4.8 6.4 0.00 0.00 0.00 68 1015.2
20260502100917 11 72 6.4 8.0 0.00 0.00 0.00 68 1015.2
20260502100416 11 82 6.4 6.4 0.00 0.00 0.00 69 1015.3
20260502091350 11 81 3.2 4.8 0.00 0.00 0.00 74 1015.3
20260502090847 11 71 1.6 3.2 0.00 0.00 0.00 78 1015.3
20260502090344 11 72 1.6 4.8 0.00 0.00 0.00 80 1015.3
20260502071239 11 100 3.2 3.2 0.00 0.00 0.00 84 1014.1
20260502070737 11 105 3.2 3.2 0.00 0.00 0.00 84 1014.0
20260502070234 11 107 3.2 3.2 0.00 0.00 0.00 84 1014.0
20260502065733 11 98 3.2 3.2 0.00 0.00 0.00 84 1014.1
20260502065230 11 96 3.2 3.2 0.00 0.00 0.00 84 1014.0
20260502064729 11 112 3.2 3.2 0.00 0.00 0.00 84 1014.1
20260502064226 11 117 0.0 3.2 0.00 0.00 0.00 83 1014.3
20260502063723 11 84 3.2 3.2 0.00 0.00 0.00 84 1014.3